| time (UTC) | temp F | wind direction | speed knots | gust knots | rain 1hr in | rain 24hr in | rain mn in | humidity % | barometer mb |
| 20260506231313 | 54 | 308 | 5.2 | 12.2 | 0.00 | 0.00 | 0.00 | 43 | 1010.1 |
| 20260506230809 | 54 | 215 | 5.2 | 12.2 | 0.00 | 0.00 | 0.00 | 43 | 1010.1 |
| 20260506230258 | 54 | 269 | 3.5 | 10.4 | 0.00 | 0.00 | 0.00 | 42 | 1009.8 |
| 20260506225755 | 55 | 225 | 4.3 | 11.3 | 0.00 | 0.00 | 0.00 | 42 | 1009.8 |
| 20260506225249 | 55 | 292 | 4.3 | 11.3 | 0.00 | 0.00 | 0.00 | 42 | 1009.8 |
| 20260506224736 | 55 | 325 | 4.3 | 11.3 | 0.00 | 0.00 | 0.00 | 42 | 1009.9 |
| 20260506224235 | 55 | 214 | 4.3 | 10.4 | 0.00 | 0.00 | 0.00 | 42 | 1009.9 |
| 20260506223731 | 55 | 274 | 5.2 | 10.4 | 0.00 | 0.00 | 0.00 | 43 | 1009.9 |
| 20260506223225 | 55 | 246 | 6.1 | 13.9 | 0.00 | 0.00 | 0.00 | 42 | 1009.8 |
| 20260506222718 | 55 | 284 | 5.2 | 12.2 | 0.00 | 0.00 | 0.00 | 41 | 1009.8 |
| 20260506222212 | 56 | 250 | 5.2 | 12.2 | 0.00 | 0.00 | 0.00 | 43 | 1009.8 |
| 20260506221707 | 55 | 283 | 5.2 | 12.2 | 0.00 | 0.00 | 0.00 | 42 | 1009.8 |
| 20260506221429 | 55 | 298 | 4.3 | 10.4 | 0.00 | 0.00 | 0.00 | 42 | 1009.8 |
| 20260506220654 | 55 | 49 | 4.3 | 13.0 | 0.00 | 0.00 | 0.00 | 41 | 1009.8 |
| 20260506220149 | 55 | 233 | 5.2 | 13.0 | 0.00 | 0.00 | 0.00 | 41 | 1009.8 |
| 20260506215642 | 56 | 263 | 6.1 | 11.3 | 0.00 | 0.00 | 0.00 | 41 | 1009.8 |
| 20260506215136 | 56 | 267 | 7.0 | 13.0 | 0.00 | 0.00 | 0.00 | 41 | 1009.8 |
| 20260506214847 | 56 | 304 | 6.1 | 13.0 | 0.00 | 0.00 | 0.00 | 41 | 1009.7 |
| 20260506214123 | 56 | 228 | 5.2 | 11.3 | 0.00 | 0.00 | 0.00 | 41 | 1009.7 |
| 20260506213617 | 56 | 320 | 6.1 | 21.7 | 0.00 | 0.00 | 0.00 | 42 | 1009.7 |
| 20260506213111 | 56 | 269 | 7.8 | 21.7 | 0.00 | 0.00 | 0.00 | 40 | 1009.7 |
| 20260506212605 | 56 | 246 | 7.0 | 14.8 | 0.00 | 0.00 | 0.00 | 40 | 1009.7 |
| 20260506212059 | 56 | 247 | 7.0 | 13.9 | 0.00 | 0.00 | 0.00 | 39 | 1009.7 |
| 20260506211553 | 56 | 284 | 6.1 | 13.0 | 0.00 | 0.00 | 0.00 | 41 | 1009.7 |
| 20260506211043 | 57 | 290 | 6.1 | 14.8 | 0.00 | 0.00 | 0.00 | 40 | 1009.7 |
| 20260506210541 | 56 | 263 | 6.1 | 14.8 | 0.00 | 0.00 | 0.00 | 41 | 1009.7 |
| 20260506210040 | 56 | 267 | 6.1 | 13.9 | 0.00 | 0.00 | 0.00 | 41 | 1009.8 |
| 20260506205540 | 56 | 271 | 6.1 | 13.9 | 0.00 | 0.00 | 0.00 | 41 | 1009.8 |
| 20260506205040 | 56 | 237 | 5.2 | 13.0 | 0.00 | 0.00 | 0.00 | 40 | 1009.8 |
| 20260506204540 | 56 | 291 | 6.1 | 13.0 | 0.00 | 0.00 | 0.00 | 43 | 1009.8 |
| 20260506204310 | 56 | 289 | 6.1 | 12.2 | 0.00 | 0.00 | 0.00 | 42 | 1009.8 |
| 20260506203540 | 56 | 263 | 5.2 | 12.2 | 0.00 | 0.00 | 0.00 | 40 | 1009.8 |
| 20260506203041 | 56 | 238 | 5.2 | 12.2 | 0.00 | 0.00 | 0.00 | 41 | 1009.9 |
| 20260506202801 | 56 | 248 | 4.3 | 11.3 | 0.00 | 0.00 | 0.00 | 42 | 1009.9 |
| 20260506202043 | 55 | 221 | 4.3 | 12.2 | 0.00 | 0.00 | 0.00 | 44 | 1009.9 |
| 20260506201544 | 55 | 278 | 5.2 | 13.0 | 0.00 | 0.00 | 0.00 | 42 | 1010.2 |
| 20260506201040 | 55 | 244 | 5.2 | 13.0 | 0.00 | 0.00 | 0.00 | 44 | 1010.2 |
| 20260506200540 | 56 | 271 | 5.2 | 12.2 | 0.00 | 0.00 | 0.00 | 45 | 1010.2 |
| 20260506200040 | 55 | 259 | 5.2 | 12.2 | 0.00 | 0.00 | 0.00 | 44 | 1010.3 |
| 20260506195539 | 55 | 286 | 5.2 | 14.8 | 0.00 | 0.00 | 0.00 | 44 | 1010.3 |
| 20260506195039 | 55 | 219 | 5.2 | 14.8 | 0.00 | 0.00 | 0.00 | 44 | 1010.3 |
| 20260506194802 | 55 | 160 | 5.2 | 11.3 | 0.00 | 0.00 | 0.00 | 44 | 1010.3 |
| 20260506194022 | 55 | 311 | 5.2 | 11.3 | 0.00 | 0.00 | 0.00 | 45 | 1010.3 |
| 20260506193511 | 55 | 254 | 6.1 | 12.2 | 0.00 | 0.00 | 0.00 | 44 | 1010.3 |
| 20260506193012 | 55 | 227 | 6.1 | 16.5 | 0.00 | 0.00 | 0.00 | 45 | 1010.3 |
| 20260506192512 | 55 | 252 | 5.2 | 16.5 | 0.00 | 0.00 | 0.00 | 45 | 1010.3 |
| 20260506192012 | 54 | 264 | 4.3 | 9.6 | 0.00 | 0.00 | 0.00 | 48 | 1010.3 |
| 20260506191512 | 54 | 254 | 5.2 | 9.6 | 0.00 | 0.00 | 0.00 | 48 | 1010.5 |
| 20260506191011 | 54 | 217 | 5.2 | 12.2 | 0.00 | 0.00 | 0.00 | 49 | 1010.5 |
| 20260506190732 | 54 | 265 | 4.3 | 12.2 | 0.00 | 0.00 | 0.00 | 47 | 1010.5 |
| 20260506190016 | 54 | 315 | 5.2 | 12.2 | 0.00 | 0.00 | 0.00 | 48 | 1010.5 |
| 20260506185511 | 54 | 246 | 5.2 | 12.2 | 0.00 | 0.00 | 0.00 | 46 | 1010.5 |
| 20260506185500 | 54 | 235 | 3.5 | 8.7 | 0.00 | 0.00 | 0.00 | 48 | 1010.5 |
| 20260506184504 | 54 | 287 | 4.3 | 11.3 | 0.00 | 0.00 | 0.00 | 48 | 1010.3 |
| 20260506183958 | 54 | 227 | 5.2 | 11.3 | 0.00 | 0.00 | 0.00 | 46 | 1010.3 |
| 20260506183452 | 53 | 226 | 6.1 | 11.3 | 0.00 | 0.00 | 0.00 | 46 | 1010.3 |
| 20260506182941 | 54 | 234 | 5.2 | 11.3 | 0.00 | 0.00 | 0.00 | 46 | 1010.3 |
| 20260506182440 | 54 | 285 | 4.3 | 14.8 | 0.00 | 0.00 | 0.00 | 47 | 1010.3 |
| 20260506181934 | 55 | 266 | 4.3 | 14.8 | 0.00 | 0.00 | 0.00 | 47 | 1010.4 |
| 20260506181428 | 54 | 213 | 5.2 | 9.6 | 0.00 | 0.00 | 0.00 | 45 | 1010.4 |
| 20260506181141 | 55 | 236 | 4.3 | 9.6 | 0.00 | 0.00 | 0.00 | 44 | 1010.4 |
| 20260506180641 | 55 | 254 | 3.5 | 10.4 | 0.00 | 0.00 | 0.00 | 45 | 1010.5 |
| 20260506180353 | 55 | 333 | 3.5 | 10.4 | 0.00 | 0.00 | 0.00 | 43 | 1010.5 |
| 20260506175359 | 55 | 236 | 3.5 | 8.7 | 0.00 | 0.00 | 0.00 | 45 | 1010.5 |
| 20260506174858 | 54 | 273 | 4.3 | 10.4 | 0.00 | 0.00 | 0.00 | 43 | 1010.8 |
| 20260506174352 | 54 | 232 | 5.2 | 14.8 | 0.00 | 0.00 | 0.00 | 44 | 1010.8 |
| 20260506173846 | 54 | 263 | 5.2 | 14.8 | 0.00 | 0.00 | 0.00 | 44 | 1010.8 |
| 20260506173340 | 54 | 218 | 4.3 | 11.3 | 0.00 | 0.00 | 0.00 | 43 | 1010.8 |
| 20260506172829 | 54 | 282 | 4.3 | 10.4 | 0.00 | 0.00 | 0.00 | 43 | 1010.8 |
| 20260506172328 | 54 | 204 | 4.3 | 12.2 | 0.00 | 0.00 | 0.00 | 42 | 1010.8 |
| 20260506171823 | 54 | 286 | 4.3 | 12.2 | 0.00 | 0.00 | 0.00 | 41 | 1010.7 |
| 20260506171319 | 55 | 282 | 3.5 | 9.6 | 0.00 | 0.00 | 0.00 | 42 | 1010.7 |
| 20260506170811 | 54 | 258 | 3.5 | 8.7 | 0.00 | 0.00 | 0.00 | 45 | 1010.7 |
| 20260506170300 | 54 | 245 | 4.3 | 8.7 | 0.00 | 0.00 | 0.00 | 42 | 1010.4 |
| 20260506165759 | 54 | 236 | 4.3 | 13.0 | 0.00 | 0.00 | 0.00 | 42 | 1010.4 |
| 20260506165512 | 54 | 317 | 4.3 | 13.0 | 0.00 | 0.00 | 0.00 | 41 | 1010.4 |
| 20260506164745 | 54 | 300 | 4.3 | 8.7 | 0.00 | 0.00 | 0.00 | 43 | 1010.4 |
| 20260506164240 | 54 | 5 | 3.5 | 8.7 | 0.00 | 0.00 | 0.00 | 42 | 1010.4 |
| 20260506163729 | 54 | 338 | 3.5 | 8.7 | 0.00 | 0.00 | 0.00 | 43 | 1010.4 |
| 20260506163227 | 53 | 284 | 4.3 | 8.7 | 0.00 | 0.00 | 0.00 | 43 | 1010.3 |
| 20260506162950 | 54 | 205 | 4.3 | 8.7 | 0.00 | 0.00 | 0.00 | 42 | 1010.3 |
| 20260506162216 | 54 | 316 | 4.3 | 8.7 | 0.00 | 0.00 | 0.00 | 42 | 1010.3 |
| 20260506161710 | 54 | 338 | 4.3 | 8.7 | 0.00 | 0.00 | 0.00 | 44 | 1010.3 |
| 20260506161204 | 54 | 279 | 3.5 | 7.0 | 0.00 | 0.00 | 0.00 | 44 | 1010.3 |
| 20260506160659 | 53 | 241 | 3.5 | 7.8 | 0.00 | 0.00 | 0.00 | 44 | 1010.3 |
| 20260506160420 | 53 | 281 | 4.3 | 7.8 | 0.00 | 0.00 | 0.00 | 43 | 1010.3 |
| 20260506155917 | 53 | 261 | 3.5 | 7.8 | 0.00 | 0.00 | 0.00 | 44 | 1010.3 |
| 20260506155156 | 53 | 271 | 3.5 | 7.0 | 0.00 | 0.00 | 0.00 | 44 | 1010.3 |
| 20260506154657 | 53 | 11 | 3.5 | 7.0 | 0.00 | 0.00 | 0.00 | 45 | 1010.3 |
| 20260506154157 | 53 | 220 | 3.5 | 6.1 | 0.00 | 0.00 | 0.00 | 47 | 1010.3 |
| 20260506153657 | 53 | 209 | 2.6 | 7.0 | 0.00 | 0.00 | 0.00 | 47 | 1010.3 |
| 20260506153157 | 53 | 256 | 2.6 | 7.0 | 0.00 | 0.00 | 0.00 | 47 | 1010.3 |
| 20260506152921 | 53 | 263 | 2.6 | 6.1 | 0.00 | 0.00 | 0.00 | 47 | 1010.3 |
| 20260506152156 | 53 | 355 | 2.6 | 6.1 | 0.00 | 0.00 | 0.00 | 49 | 1010.3 |
| 20260506151656 | 52 | 265 | 2.6 | 7.0 | 0.00 | 0.00 | 0.00 | 48 | 1010.7 |
| 20260506151158 | 52 | 243 | 3.5 | 7.0 | 0.00 | 0.00 | 0.00 | 49 | 1010.7 |
| 20260506150652 | 52 | 243 | 2.6 | 7.0 | 0.00 | 0.00 | 0.00 | 48 | 1010.7 |
| 20260506150138 | 52 | 265 | 1.7 | 6.1 | 0.00 | 0.00 | 0.00 | 49 | 1010.5 |
| 20260506145627 | 52 | 238 | 1.7 | 4.3 | 0.00 | 0.00 | 0.00 | 49 | 1010.5 |
| 20260506145116 | 51 | 233 | 0.9 | 4.3 | 0.00 | 0.00 | 0.00 | 50 | 1010.5 |
| 20260506144602 | 51 | 161 | 0.9 | 4.3 | 0.00 | 0.00 | 0.00 | 52 | 1010.7 |
| 20260506144051 | 51 | 253 | 1.7 | 5.2 | 0.00 | 0.00 | 0.00 | 52 | 1010.7 |
| 20260506144038 | 52 | 234 | 1.7 | 5.2 | 0.00 | 0.00 | 0.00 | 51 | 1010.7 |
| 20260506143037 | 52 | 211 | 0.0 | 2.6 | 0.00 | 0.00 | 0.00 | 52 | 1010.7 |
| 20260506142531 | 51 | 114 | 0.0 | 1.7 | 0.00 | 0.00 | 0.00 | 51 | 1010.7 |
| 20260506142025 | 51 | 114 | 0.9 | 1.7 | 0.00 | 0.00 | 0.00 | 53 | 1010.7 |
| 20260506141515 | 51 | 114 | 0.9 | 1.7 | 0.00 | 0.00 | 0.00 | 52 | 1010.5 |
| 20260506141013 | 50 | 83 | 0.0 | 1.7 | 0.00 | 0.00 | 0.00 | 54 | 1010.5 |
| 20260506140508 | 50 | 83 | 0.0 | 0.0 | 0.00 | 0.00 | 0.00 | 54 | 1010.5 |
| 20260506140001 | 49 | 35 | 0.0 | 0.0 | 0.00 | 0.00 | 0.00 | 56 | 1010.3 |
| 20260506135456 | 49 | 35 | 0.0 | 0.0 | 0.00 | 0.00 | 0.00 | 57 | 1010.3 |
| 20260506135208 | 49 | 35 | 0.0 | 0.0 | 0.00 | 0.00 | 0.00 | 57 | 1010.2 |
| 20260506134444 | 48 | 35 | 0.0 | 1.7 | 0.00 | 0.00 | 0.00 | 57 | 1010.2 |
| 20260506134150 | 48 | 36 | 0.9 | 1.7 | 0.00 | 0.00 | 0.00 | 60 | 1010.2 |
| 20260506133431 | 48 | 35 | 0.9 | 2.6 | 0.00 | 0.00 | 0.00 | 60 | 1009.8 |
| 20260506132924 | 48 | 35 | 0.9 | 2.6 | 0.00 | 0.00 | 0.00 | 60 | 1009.8 |
| 20260506132418 | 48 | 29 | 0.9 | 3.5 | 0.00 | 0.00 | 0.00 | 60 | 1009.8 |
| 20260506131912 | 47 | 26 | 0.9 | 3.5 | 0.00 | 0.00 | 0.00 | 61 | 1009.7 |
| 20260506131413 | 47 | 62 | 0.9 | 3.5 | 0.00 | 0.00 | 0.00 | 63 | 1009.7 |
| 20260506130912 | 47 | 22 | 0.9 | 3.5 | 0.00 | 0.00 | 0.00 | 63 | 1009.7 |
| 20260506130636 | 47 | 28 | 0.9 | 2.6 | 0.00 | 0.00 | 0.00 | 65 | 1009.6 |
| 20260506125910 | 47 | 5 | 0.0 | 1.7 | 0.00 | 0.00 | 0.00 | 66 | 1009.6 |
| 20260506125410 | 46 | 5 | 0.0 | 1.7 | 0.00 | 0.00 | 0.00 | 67 | 1009.6 |
| 20260506124910 | 46 | 5 | 0.9 | 2.6 | 0.00 | 0.00 | 0.00 | 69 | 1009.5 |
| 20260506124408 | 46 | 5 | 0.9 | 3.5 | 0.00 | 0.00 | 0.00 | 69 | 1009.5 |
| 20260506123909 | 45 | 5 | 0.9 | 3.5 | 0.00 | 0.00 | 0.00 | 70 | 1009.5 |
| 20260506123628 | 45 | 30 | 0.0 | 2.6 | 0.00 | 0.00 | 0.00 | 70 | 1009.2 |
| 20260506122908 | 45 | 30 | 0.0 | 1.7 | 0.00 | 0.00 | 0.00 | 71 | 1009.2 |
| 20260506122408 | 44 | 34 | 0.0 | 0.0 | 0.00 | 0.00 | 0.00 | 71 | 1009.2 |
| 20260506121906 | 44 | 34 | 0.0 | 0.9 | 0.00 | 0.00 | 0.00 | 71 | 1009.2 |
| 20260506121404 | 44 | 34 | 0.0 | 1.7 | 0.00 | 0.00 | 0.00 | 71 | 1009.2 |
| 20260506120902 | 44 | 34 | 0.0 | 1.7 | 0.00 | 0.00 | 0.00 | 71 | 1009.2 |
| 20260506120626 | 43 | 34 | 0.9 | 1.7 | 0.00 | 0.00 | 0.00 | 70 | 1009.1 |
| 20260506115901 | 43 | 34 | 0.9 | 2.6 | 0.00 | 0.00 | 0.00 | 70 | 1009.1 |
| 20260506115400 | 43 | 34 | 0.9 | 2.6 | 0.00 | 0.00 | 0.00 | 70 | 1009.1 |
| 20260506115123 | 43 | 55 | 0.0 | 0.9 | 0.00 | 0.00 | 0.00 | 70 | 1008.8 |
| 20260506114401 | 43 | 55 | 0.0 | 1.7 | 0.00 | 0.00 | 0.00 | 71 | 1008.8 |
| 20260506113857 | 43 | 55 | 0.0 | 1.7 | 0.00 | 0.00 | 0.00 | 70 | 1008.8 |
| 20260506113350 | 43 | 55 | 0.0 | 1.7 | 0.00 | 0.00 | 0.00 | 69 | 1008.6 |
| 20260506112842 | 43 | 55 | 0.0 | 1.7 | 0.00 | 0.00 | 0.00 | 69 | 1008.6 |
| 20260506112339 | 43 | 55 | 0.0 | 1.7 | 0.00 | 0.00 | 0.00 | 69 | 1008.6 |
| 20260506111830 | 42 | 55 | 0.0 | 1.7 | 0.00 | 0.00 | 0.00 | 69 | 1008.5 |
| 20260506111326 | 42 | 55 | 0.0 | 1.7 | 0.00 | 0.00 | 0.00 | 69 | 1008.5 |
| 20260506110814 | 42 | 55 | 0.0 | 1.7 | 0.00 | 0.00 | 0.00 | 70 | 1008.5 |
| 20260506110303 | 42 | 55 | 0.0 | 0.9 | 0.00 | 0.00 | 0.00 | 70 | 1008.3 |
| 20260506105752 | 42 | 55 | 0.0 | 0.9 | 0.00 | 0.00 | 0.00 | 71 | 1008.3 |
| 20260506105238 | 42 | 55 | 0.0 | 0.0 | 0.00 | 0.00 | 0.00 | 71 | 1008.3 |
| 20260506104727 | 42 | 55 | 0.0 | 0.0 | 0.00 | 0.00 | 0.00 | 70 | 1008.2 |
| 20260506104215 | 42 | 55 | 0.0 | 0.0 | 0.00 | 0.00 | 0.00 | 70 | 1008.2 |
| 20260506103702 | 42 | 55 | 0.9 | 1.7 | 0.00 | 0.00 | 0.00 | 70 | 1008.2 |
| 20260506103150 | 42 | 55 | 0.9 | 2.6 | 0.00 | 0.00 | 0.00 | 70 | 1007.8 |
| 20260506102640 | 42 | 55 | 0.0 | 2.6 | 0.00 | 0.00 | 0.00 | 69 | 1007.8 |
| 20260506102126 | 42 | 55 | 0.9 | 2.6 | 0.00 | 0.00 | 0.00 | 69 | 1007.8 |
| 20260506101615 | 42 | 55 | 0.9 | 2.6 | 0.00 | 0.00 | 0.00 | 69 | 1007.6 |
| 20260506101109 | 43 | 55 | 0.9 | 2.6 | 0.00 | 0.00 | 0.00 | 69 | 1007.6 |
| 20260506100604 | 43 | 55 | 0.9 | 2.6 | 0.00 | 0.00 | 0.00 | 69 | 1007.6 |
| 20260506100050 | 43 | 48 | 0.0 | 1.7 | 0.00 | 0.00 | 0.00 | 69 | 1007.7 |
| 20260506095550 | 43 | 48 | 0.0 | 1.7 | 0.00 | 0.00 | 0.00 | 68 | 1007.7 |
| 20260506095045 | 43 | 38 | 0.0 | 0.0 | 0.00 | 0.00 | 0.00 | 68 | 1007.7 |
| 20260506094537 | 43 | 38 | 0.0 | 0.0 | 0.00 | 0.00 | 0.00 | 68 | 1007.8 |
| 20260506094033 | 43 | 38 | 0.0 | 1.7 | 0.00 | 0.00 | 0.00 | 68 | 1007.8 |
| 20260506093520 | 43 | 38 | 0.0 | 2.6 | 0.00 | 0.00 | 0.00 | 67 | 1007.8 |
| 20260506093020 | 44 | 57 | 0.9 | 1.7 | 0.00 | 0.00 | 0.00 | 67 | 1007.8 |
| 20260506092515 | 44 | 58 | 0.9 | 1.7 | 0.00 | 0.00 | 0.00 | 67 | 1007.8 |
| 20260506092008 | 44 | 57 | 0.0 | 1.7 | 0.00 | 0.00 | 0.00 | 66 | 1007.8 |
| 20260506091504 | 44 | 56 | 0.0 | 1.7 | 0.00 | 0.00 | 0.00 | 66 | 1007.7 |
| 20260506090956 | 44 | 57 | 0.0 | 1.7 | 0.00 | 0.00 | 0.00 | 65 | 1007.7 |
| 20260506090716 | 44 | 56 | 0.0 | 1.7 | 0.00 | 0.00 | 0.00 | 65 | 1007.7 |
| 20260506085946 | 44 | 56 | 0.9 | 1.7 | 0.00 | 0.00 | 0.00 | 65 | 1007.7 |
| 20260506085439 | 44 | 56 | 0.9 | 1.7 | 0.00 | 0.00 | 0.00 | 64 | 1007.7 |
| 20260506085152 | 45 | 59 | 0.9 | 2.6 | 0.00 | 0.00 | 0.00 | 64 | 1007.6 |
| 20260506084426 | 45 | 59 | 0.9 | 4.3 | 0.00 | 0.00 | 0.00 | 64 | 1007.6 |
| 20260506083921 | 45 | 67 | 0.9 | 4.3 | 0.00 | 0.00 | 0.00 | 63 | 1007.6 |
| 20260506083628 | 45 | 46 | 0.9 | 2.6 | 0.00 | 0.00 | 0.00 | 62 | 1007.6 |
| 20260506082908 | 45 | 34 | 0.9 | 2.6 | 0.00 | 0.00 | 0.00 | 62 | 1007.6 |
| 20260506082402 | 46 | 32 | 0.9 | 2.6 | 0.00 | 0.00 | 0.00 | 61 | 1007.6 |
| 20260506081855 | 46 | 48 | 1.7 | 6.1 | 0.00 | 0.00 | 0.00 | 60 | 1007.5 |
| 20260506081351 | 46 | 49 | 1.7 | 6.1 | 0.00 | 0.00 | 0.00 | 60 | 1007.5 |
| 20260506080847 | 46 | 60 | 2.6 | 7.0 | 0.00 | 0.00 | 0.00 | 60 | 1007.5 |
| 20260506080339 | 46 | 56 | 2.6 | 7.0 | 0.00 | 0.00 | 0.00 | 59 | 1007.3 |
| 20260506073018 | 47 | 336 | 2.6 | 6.1 | 0.00 | 0.00 | 0.00 | 58 | 1006.7 |
| 20260506072249 | 47 | 5 | 2.6 | 6.1 | 0.00 | 0.00 | 0.00 | 58 | 1006.7 |
| 20260506071743 | 47 | 5 | 2.6 | 6.1 | 0.00 | 0.00 | 0.00 | 58 | 1006.6 |
| 20260506071505 | 47 | 355 | 2.6 | 5.2 | 0.00 | 0.00 | 0.00 | 58 | 1006.6 |
| 20260506070727 | 47 | 355 | 2.6 | 5.2 | 0.00 | 0.00 | 0.00 | 58 | 1006.6 |
| 20260506070226 | 47 | 355 | 1.7 | 3.5 | 0.00 | 0.00 | 0.00 | 59 | 1006.6 |
| 20260506062147 | 48 | 14 | 0.9 | 4.3 | 0.00 | 0.00 | 0.00 | 60 | 1006.6 |
| 20260506061647 | 48 | 0 | 1.7 | 4.3 | 0.00 | 0.00 | 0.00 | 60 | 1006.6 |
| 20260506061149 | 49 | 355 | 1.7 | 3.5 | 0.00 | 0.00 | 0.00 | 59 | 1006.6 |
| 20260506060649 | 49 | 9 | 1.7 | 3.5 | 0.00 | 0.00 | 0.00 | 59 | 1006.6 |
| 20260506060147 | 49 | 26 | 0.9 | 3.5 | 0.00 | 0.00 | 0.00 | 59 | 1006.8 |
| 20260506051048 | 50 | 270 | 0.9 | 4.3 | 0.00 | 0.00 | 0.00 | 58 | 1006.3 |
| 20260506050549 | 50 | 314 | 0.9 | 4.3 | 0.00 | 0.00 | 0.00 | 58 | 1006.3 |
| 20260506045023 | 50 | 277 | 0.9 | 2.6 | 0.00 | 0.00 | 0.00 | 58 | 1006.1 |
| 20260506044518 | 51 | 262 | 0.9 | 2.6 | 0.00 | 0.00 | 0.00 | 58 | 1006.4 |
| 20260506044005 | 51 | 261 | 0.0 | 1.7 | 0.00 | 0.00 | 0.00 | 58 | 1006.4 |
| 20260506043505 | 51 | 257 | 0.0 | 2.6 | 0.00 | 0.00 | 0.00 | 59 | 1006.4 |
| 20260506043219 | 51 | 257 | 0.9 | 2.6 | 0.00 | 0.00 | 0.00 | 58 | 1006.5 |
| 20260506042939 | 51 | 292 | 0.0 | 1.7 | 0.00 | 0.00 | 0.00 | 57 | 1006.5 |
| 20260506041947 | 51 | 292 | 0.0 | 1.7 | 0.00 | 0.00 | 0.00 | 56 | 1006.6 |
| 20260506041441 | 51 | 268 | 0.0 | 0.0 | 0.00 | 0.00 | 0.00 | 57 | 1006.6 |
| 20260506040937 | 51 | 263 | 0.0 | 0.0 | 0.00 | 0.00 | 0.00 | 57 | 1006.6 |
| 20260506040424 | 51 | 255 | 0.0 | 0.0 | 0.00 | 0.00 | 0.00 | 57 | 1006.7 |
| 20260506040152 | 51 | 281 | 0.0 | 1.7 | 0.00 | 0.00 | 0.00 | 57 | 1006.7 |
| 20260506035419 | 51 | 281 | 0.9 | 1.7 | 0.00 | 0.00 | 0.00 | 58 | 1006.7 |
| 20260506034911 | 51 | 282 | 0.9 | 2.6 | 0.00 | 0.00 | 0.00 | 56 | 1006.6 |
| 20260506034406 | 51 | 290 | 0.9 | 2.6 | 0.00 | 0.00 | 0.00 | 55 | 1006.6 |
| 20260506033856 | 51 | 290 | 0.9 | 1.7 | 0.00 | 0.00 | 0.00 | 56 | 1006.6 |
| 20260506033353 | 51 | 291 | 0.9 | 2.6 | 0.00 | 0.00 | 0.00 | 54 | 1006.5 |
| 20260506032848 | 51 | 293 | 0.0 | 2.6 | 0.00 | 0.00 | 0.00 | 55 | 1006.5 |
| 20260506032609 | 51 | 277 | 0.0 | 0.0 | 0.00 | 0.00 | 0.00 | 56 | 1006.5 |
| 20260506031836 | 51 | 277 | 0.0 | 0.0 | 0.00 | 0.00 | 0.00 | 54 | 1006.5 |
| 20260506031329 | 51 | 277 | 0.0 | 0.0 | 0.00 | 0.00 | 0.00 | 54 | 1006.5 |
| 20260506031050 | 51 | 277 | 0.0 | 0.0 | 0.00 | 0.00 | 0.00 | 55 | 1006.5 |
| 20260506030313 | 51 | 277 | 0.0 | 0.0 | 0.00 | 0.00 | 0.00 | 54 | 1006.1 |
| 20260506025812 | 51 | 277 | 0.0 | 0.0 | 0.00 | 0.00 | 0.00 | 53 | 1006.1 |
| 20260506025306 | 52 | 277 | 0.0 | 0.0 | 0.00 | 0.00 | 0.00 | 53 | 1006.1 |
| 20260506024759 | 52 | 277 | 0.0 | 1.7 | 0.00 | 0.00 | 0.00 | 53 | 1006.0 |
| 20260506024515 | 52 | 277 | 0.9 | 2.6 | 0.00 | 0.00 | 0.00 | 52 | 1006.0 |
| 20260506023744 | 52 | 277 | 0.9 | 2.6 | 0.00 | 0.00 | 0.00 | 52 | 1006.0 |
| 20260506023231 | 52 | 277 | 0.9 | 3.5 | 0.00 | 0.00 | 0.00 | 52 | 1006.0 |
| 20260506022731 | 52 | 277 | 0.9 | 3.5 | 0.00 | 0.00 | 0.00 | 52 | 1006.0 |
| 20260506022226 | 52 | 279 | 0.0 | 2.6 | 0.00 | 0.00 | 0.00 | 52 | 1006.0 |
| 20260506021718 | 52 | 279 | 0.0 | 2.6 | 0.00 | 0.00 | 0.00 | 52 | 1005.8 |
| 20260506021214 | 52 | 284 | 0.0 | 1.7 | 0.00 | 0.00 | 0.00 | 51 | 1005.8 |
| 20260506020700 | 52 | 292 | 0.9 | 2.6 | 0.00 | 0.00 | 0.00 | 52 | 1005.8 |
| 20260506020202 | 52 | 292 | 0.9 | 2.6 | 0.00 | 0.00 | 0.00 | 51 | 1005.7 |
| 20260506015655 | 52 | 292 | 0.0 | 0.0 | 0.00 | 0.00 | 0.00 | 51 | 1005.7 |
| 20260506015149 | 52 | 292 | 0.0 | 0.0 | 0.00 | 0.00 | 0.00 | 51 | 1005.7 |
| 20260506014644 | 53 | 292 | 0.0 | 0.0 | 0.00 | 0.00 | 0.00 | 51 | 1005.5 |
| 20260506014132 | 53 | 292 | 0.0 | 2.6 | 0.00 | 0.00 | 0.00 | 51 | 1005.5 |
| 20260506013849 | 53 | 292 | 0.9 | 2.6 | 0.00 | 0.00 | 0.00 | 50 | 1005.5 |
| 20260506013116 | 53 | 321 | 0.9 | 2.6 | 0.00 | 0.00 | 0.00 | 50 | 1005.2 |
| 20260506012830 | 53 | 298 | 0.9 | 2.6 | 0.00 | 0.00 | 0.00 | 50 | 1005.2 |
| 20260506012106 | 53 | 298 | 0.0 | 1.7 | 0.00 | 0.00 | 0.00 | 50 | 1005.2 |
| 20260506011827 | 53 | 297 | 0.0 | 3.5 | 0.00 | 0.00 | 0.00 | 49 | 1005.2 |
| 20260506011106 | 53 | 297 | 0.9 | 3.5 | 0.00 | 0.00 | 0.00 | 50 | 1005.2 |
| 20260506010605 | 53 | 284 | 0.9 | 3.5 | 0.00 | 0.00 | 0.00 | 49 | 1005.2 |
| 20260506010104 | 53 | 275 | 0.0 | 3.5 | 0.00 | 0.00 | 0.00 | 49 | 1005.0 |
| 20260506010048 | 53 | 287 | 0.0 | 3.5 | 0.00 | 0.00 | 0.00 | 48 | 1005.0 |
| 20260506005103 | 53 | 288 | 0.0 | 1.7 | 0.00 | 0.00 | 0.00 | 48 | 1005.0 |
| 20260506004604 | 53 | 288 | 0.9 | 2.6 | 0.00 | 0.00 | 0.00 | 48 | 1005.0 |
| 20260506004103 | 53 | 292 | 0.9 | 3.5 | 0.00 | 0.00 | 0.00 | 46 | 1005.0 |
| 20260506003555 | 53 | 296 | 0.9 | 3.5 | 0.00 | 0.00 | 0.00 | 47 | 1005.0 |
| 20260506003051 | 54 | 257 | 0.9 | 2.6 | 0.00 | 0.00 | 0.00 | 46 | 1004.7 |
| 20260506002541 | 54 | 258 | 0.9 | 3.5 | 0.00 | 0.00 | 0.00 | 45 | 1004.7 |
| 20260506002039 | 54 | 258 | 0.9 | 3.5 | 0.00 | 0.00 | 0.00 | 45 | 1004.7 |
| 20260506001532 | 54 | 259 | 1.7 | 3.5 | 0.00 | 0.00 | 0.00 | 45 | 1004.6 |
| 20260506001027 | 54 | 281 | 0.9 | 3.5 | 0.00 | 0.00 | 0.00 | 44 | 1004.6 |
| 20260506000520 | 54 | 340 | 0.9 | 3.5 | 0.00 | 0.00 | 0.00 | 45 | 1004.6 |
| 20260506000014 | 54 | 298 | 0.9 | 4.3 | 0.00 | 0.00 | 0.00 | 44 | 1004.5 |
| 20260505235507 | 54 | 310 | 0.9 | 4.3 | 0.00 | 0.00 | 0.00 | 44 | 1004.5 |
| 20260505234956 | 54 | 355 | 1.7 | 5.2 | 0.00 | 0.00 | 0.00 | 44 | 1004.5 |
| 20260505234455 | 54 | 328 | 2.6 | 5.2 | 0.00 | 0.00 | 0.00 | 43 | 1004.9 |
| 20260505233950 | 54 | 313 | 1.7 | 5.2 | 0.00 | 0.00 | 0.00 | 42 | 1004.9 |
| 20260505233444 | 54 | 332 | 1.7 | 5.2 | 0.00 | 0.00 | 0.00 | 42 | 1004.7 |
| 20260505232939 | 54 | 288 | 2.6 | 5.2 | 0.00 | 0.00 | 0.00 | 42 | 1004.7 |
| 20260505232428 | 54 | 294 | 1.7 | 5.2 | 0.00 | 0.00 | 0.00 | 41 | 1004.7 |
| 20260505231925 | 54 | 290 | 2.6 | 7.0 | 0.00 | 0.00 | 0.00 | 41 | 1004.9 |